When you browse on this site, cookies collect data to enhance your experience and personalize the content and advertising you see.
Visit our Privacy Policy to learn more. By continuing to use the site, you agree to this use of cookies and data.
  • In United Kingdom
  • List of Countries
  • For 7 days
  • Water Temperature
  • Weather Map
  • Weather Widgets
  • user-avatar
    Login

    Hourly Weather Kengtung

    Today, 13 December, Friday

    Time Temperature Precipitation Wind Pressure Humidity
    00:00 +13°C° 0 mm 0 mps 702 mmHg 88%
    01:00 +12°C° 0 mm 0 mps 703 mmHg 90%
    02:00 +12°C° 0 mm 0 mps 702 mmHg 91%
    03:00 +12°C° 0 mm 0 mps 702 mmHg 92%
    04:00 +12°C° 0 mm 0 mps 702 mmHg 94%
    05:00 +11°C° 0 mm 0 mps 702 mmHg 94%
    06:00 +11°C° 0 mm 0 mps 703 mmHg 95%
    07:00 +11°C° 0 mm 0 mps 703 mmHg 95%
    08:00 +15°C° 0 mm 0 mps 704 mmHg 81%
    09:00 +18°C° 0 mm 0 mps 705 mmHg 67%
    10:00 +22°C° 0 mm 0 mps 706 mmHg 53%
    11:00 +24°C° 0 mm 0 mps 705 mmHg 47%
    12:00 +25°C° 0 mm 0 mps 705 mmHg 42%
    13:00 +27°C° 0 mm 0 mps 704 mmHg 37%
    14:00 +26°C° 0 mm 0 mps 704 mmHg 38%
    15:00 +26°C° 0 mm 0 mps 703 mmHg 39%
    16:00 +27°C° 0 mm 1 mps 702 mmHg 40%
    17:00 +22°C° 0 mm 0 mps 703 mmHg 53%
    18:00 +19°C° 0 mm 0 mps 703 mmHg 65%
    19:00 +16°C° 0 mm 0 mps 703 mmHg 77%
    20:00 +16°C° 0 mm 0 mps 703 mmHg 79%
    21:00 +15°C° 0 mm 0 mps 704 mmHg 81%
    22:00 +14°C° 0 mm 0 mps 704 mmHg 84%
    23:00 +14°C° 0 mm 0 mps 704 mmHg 85%

    Tomorrow, 14 December, Saturday

    Time Temperature Precipitation Wind Pressure Humidity
    00:00 +14°C° 0 mm 0 mps 704 mmHg 87%
    01:00 +13°C° 0 mm 0 mps 704 mmHg 89%
    02:00 +13°C° 0 mm 0 mps 703 mmHg 90%
    03:00 +13°C° 0 mm 0 mps 703 mmHg 91%
    04:00 +12°C° 0 mm 0 mps 703 mmHg 92%
    05:00 +12°C° 0 mm 0 mps 703 mmHg 93%
    06:00 +12°C° 0 mm 0 mps 704 mmHg 93%
    07:00 +12°C° 0 mm 0 mps 704 mmHg 93%
    08:00 +15°C° 0 mm 0 mps 705 mmHg 79%
    09:00 +19°C° 0 mm 0 mps 705 mmHg 66%
    10:00 +23°C° 0 mm 0 mps 706 mmHg 52%
    11:00 +24°C° 0 mm 0 mps 705 mmHg 47%
    12:00 +26°C° 0 mm 0 mps 705 mmHg 42%
    13:00 +27°C° 0 mm 0 mps 704 mmHg 37%
    14:00 +27°C° 0 mm 0 mps 703 mmHg 38%
    15:00 +26°C° 0 mm 0 mps 703 mmHg 39%
    16:00 +26°C° 0 mm 0 mps 702 mmHg 40%
    17:00 +23°C° 0 mm 0 mps 702 mmHg 52%
    18:00 +20°C° 0 mm 0 mps 702 mmHg 63%
    19:00 +17°C° 0 mm 0 mps 702 mmHg 75%
    20:00 +16°C° 0 mm 0 mps 702 mmHg 77%
    21:00 +15°C° 0 mm 0 mps 703 mmHg 78%
    22:00 +15°C° 0 mm 0 mps 703 mmHg 80%
    23:00 +14°C° 0 mm 0 mps 703 mmHg 82%

    Day after tomorrow, 15 December, Sunday

    Time Temperature Precipitation Wind Pressure Humidity
    00:00 +14°C° 0 mm 0 mps 702 mmHg 84%
    01:00 +13°C° 0 mm 0 mps 702 mmHg 86%
    02:00 +13°C° 0 mm 0 mps 702 mmHg 87%
    03:00 +13°C° 0 mm 0 mps 702 mmHg 89%
    04:00 +12°C° 0 mm 0 mps 702 mmHg 90%
    05:00 +12°C° 0 mm 0 mps 702 mmHg 90%
    06:00 +12°C° 0 mm 0 mps 702 mmHg 91%
    07:00 +12°C° 0 mm 0 mps 703 mmHg 92%
    08:00 +15°C° 0 mm 0 mps 704 mmHg 78%
    09:00 +19°C° 0 mm 0 mps 704 mmHg 65%
    10:00 +23°C° 0 mm 0 mps 705 mmHg 51%
    11:00 +24°C° 0 mm 0 mps 704 mmHg 46%
    12:00 +26°C° 0 mm 0 mps 704 mmHg 41%
    13:00 +27°C° 0 mm 0 mps 703 mmHg 36%
    14:00 +27°C° 0 mm 0 mps 702 mmHg 37%
    15:00 +29°C° 0 mm 1 mps 702 mmHg 38%
    16:00 +28°C° 0 mm 1 mps 701 mmHg 39%
    17:00 +23°C° 0 mm 0 mps 701 mmHg 50%
    18:00 +20°C° 0 mm 0 mps 701 mmHg 61%
    19:00 +17°C° 0 mm 0 mps 701 mmHg 72%
    20:00 +16°C° 0 mm 0 mps 701 mmHg 74%
    21:00 +16°C° 0 mm 0 mps 702 mmHg 75%
    22:00 +15°C° 0 mm 0 mps 702 mmHg 77%
    23:00 +15°C° 0 mm 0 mps 702 mmHg 79%

    16 December, Monday

    Time Temperature Precipitation Wind Pressure Humidity
    00:00 +14°C° 0 mm 0 mps 702 mmHg 81%
    01:00 +14°C° 0 mm 0 mps 702 mmHg 82%
    02:00 +14°C° 0 mm 0 mps 702 mmHg 83%
    03:00 +13°C° 0 mm 0 mps 702 mmHg 84%
    04:00 +13°C° 0 mm 0 mps 701 mmHg 86%
    05:00 +13°C° 0 mm 0 mps 702 mmHg 86%
    06:00 +12°C° 0 mm 0 mps 702 mmHg 87%
    07:00 +12°C° 0 mm 0 mps 702 mmHg 87%
    08:00 +16°C° 0 mm 0 mps 703 mmHg 74%
    09:00 +20°C° 0 mm 0 mps 703 mmHg 61%
    10:00 +23°C° 0 mm 0 mps 704 mmHg 48%
    11:00 +25°C° 0 mm 0 mps 704 mmHg 43%
    12:00 +26°C° 0 mm 0 mps 703 mmHg 37%
    13:00 +30°C° 0 mm 1 mps 703 mmHg 32%
    14:00 +29°C° 0 mm 1 mps 702 mmHg 33%
    15:00 +29°C° 0 mm 1 mps 702 mmHg 33%
    16:00 +29°C° 0 mm 1 mps 701 mmHg 34%
    17:00 +23°C° 0 mm 0 mps 701 mmHg 44%
    18:00 +20°C° 0 mm 0 mps 701 mmHg 54%
    19:00 +17°C° 0 mm 0 mps 701 mmHg 64%
    20:00 +16°C° 0 mm 0 mps 701 mmHg 66%
    21:00 +16°C° 0 mm 0 mps 702 mmHg 67%
    22:00 +15°C° 0 mm 0 mps 702 mmHg 68%
    23:00 +14°C° 0 mm 0 mps 702 mmHg 69%

    17 December, Tuesday

    Time Temperature Precipitation Wind Pressure Humidity
    00:00 +14°C° 0 mm 0 mps 702 mmHg 70%
    01:00 +14°C° 0 mm 0 mps 702 mmHg 72%
    02:00 +13°C° 0 mm 0 mps 701 mmHg 73%
    03:00 +13°C° 0 mm 0 mps 701 mmHg 74%
    04:00 +13°C° 0 mm 0 mps 701 mmHg 75%
    05:00 +12°C° 0 mm 0 mps 701 mmHg 76%
    06:00 +12°C° 0 mm 0 mps 702 mmHg 77%
    07:00 +12°C° 0 mm 0 mps 702 mmHg 77%
    08:00 +16°C° 0 mm 0 mps 703 mmHg 66%
    09:00 +19°C° 0 mm 0 mps 703 mmHg 55%
    10:00 +23°C° 0 mm 0 mps 704 mmHg 44%
    11:00 +25°C° 0 mm 0 mps 703 mmHg 40%
    12:00 +28°C° 0 mm 1 mps 703 mmHg 35%
    13:00 +30°C° 0 mm 1 mps 702 mmHg 31%
    14:00 +29°C° 0 mm 1 mps 702 mmHg 32%
    15:00 +29°C° 0 mm 1 mps 701 mmHg 33%
    16:00 +29°C° 0 mm 1 mps 701 mmHg 35%
    17:00 +23°C° 0 mm 0 mps 701 mmHg 45%
    18:00 +20°C° 0 mm 0 mps 701 mmHg 55%
    19:00 +17°C° 0 mm 0 mps 701 mmHg 65%
    20:00 +17°C° 0 mm 0 mps 701 mmHg 66%
    21:00 +16°C° 0 mm 0 mps 701 mmHg 67%
    22:00 +15°C° 0 mm 0 mps 702 mmHg 69%
    23:00 +15°C° 0 mm 0 mps 701 mmHg 70%

    18 December, Wednesday

    Time Temperature Precipitation Wind Pressure Humidity
    00:00 +15°C° 0 mm 0 mps 701 mmHg 71%
    01:00 +14°C° 0 mm 0 mps 701 mmHg 73%
    02:00 +14°C° 0 mm 0 mps 701 mmHg 74%
    03:00 +14°C° 0 mm 0 mps 701 mmHg 76%
    04:00 +13°C° 0 mm 0 mps 700 mmHg 77%
    05:00 +13°C° 0 mm 0 mps 701 mmHg 79%
    06:00 +13°C° 0 mm 0 mps 701 mmHg 80%
    07:00 +12°C° 0 mm 0 mps 701 mmHg 82%
    08:00 +16°C° 0 mm 0 mps 702 mmHg 71%
    09:00 +20°C° 0 mm 0 mps 703 mmHg 59%
    10:00 +23°C° 0 mm 0 mps 703 mmHg 48%
    11:00 +25°C° 0 mm 0 mps 703 mmHg 43%
    12:00 +28°C° 0 mm 1 mps 702 mmHg 39%
    13:00 +30°C° 0 mm 1 mps 701 mmHg 34%
    14:00 +30°C° 0 mm 1 mps 701 mmHg 35%
    15:00 +29°C° 0 mm 1 mps 700 mmHg 36%
    16:00 +29°C° 0 mm 1 mps 700 mmHg 37%
    17:00 +26°C° 0 mm 1 mps 700 mmHg 48%
    18:00 +21°C° 0 mm 0 mps 700 mmHg 58%
    19:00 +18°C° 0 mm 0 mps 700 mmHg 68%
    20:00 +17°C° 0 mm 0 mps 700 mmHg 70%
    21:00 +17°C° 0 mm 0 mps 700 mmHg 72%
    22:00 +16°C° 0 mm 0 mps 701 mmHg 73%
    23:00 +16°C° 0 mm 0 mps 701 mmHg 75%
    Show more